ELECTRON KICK STAGE R/B, 62086

Orbit data source: Space-Track

ELECTRON KICK STAGE R/B, 62086 is space debris in SSO originally from a launch on Mon, 25 Nov 2024 UTC launched from the Rocket Lab Launch Complex (RLLC). Debris objects in space refer to the collection of defunct objects orbiting the Earth. Examples of debris include non-operational satellites, rocket bodies, and fragments generated from explosions, collisions, or faulty payload assembly.

Loading next visibility...
Identifier
62086, 2024-219F
Orbit
SSO
Last TLE update
7 hours ago
Origin
Manufacturer
Rocket Lab
Mission
Spacecraft
Bus & Motor
KICK STAGE, CURIE
Mass
~50 kg wet, ~50 kg dry
Launch date (UTC)
2024-11-25 (7 months ago)
Launch vehicle
Unknown
Launch site
Rocket Lab Launch Complex (RLLC)
Object type
Payload
Rocket body
Debris
Shape & HBR
Cyl, Unknown HBR
Radar Cross Section
2.827 m², Medium (>0.1 m² and < 1m²)

Expand to show TLE details & history

TLE from 7 hours ago
0 ELECTRON KICK STAGE R/B
1 62086U 24219F   25183.92079686  .00002586  00000-0  24543-3 0  9998
2 62086  97.9613 350.7411 0055787  33.0506 327.4179 14.93282510 32754
Epoch: 2025-07-02T22:05Z
TLE epoch observation values (Epoch: 2025-07-02T22:05:56.848Z)
Latitude
-0.00006°
Longitude
98.05927°
Altitude
558.058 km
Speed
7.6 km/s
True Right ascension
23h 22m 57s
True Declination
0° 00' 00"
Sunlit
Object was in daylight at epoch
Visualization orbit readout
Latitude
-42.40614°
Longitude
-88.92613°
Altitude
642.226 km
Speed
7.515 km/s
Apparent Right ascension
08h 12m 02s
Apparent Declination
-49° 36' 52"
Sunlit
Object is in daylight
Visualization observer readout
Local Sidereal Time
17:17:01
Azimuth
237.641° WSW
Elevation
-57.962°
Doppler factor
1
Orbital elements
Apogee altitude
623.578 km
Perigee altitude
545.891 km
Semi-major axis
6,962.872 km
Eccentricity
0.00558
Inclination
97.9613°
RAAN
350.7411°
Arg. of periapsis
33.0506°
True anomaly
Unknown
Mean anomaly
327.4179°
Eccentric anomaly
Unknown
Mean motion
3.7356 °/min
Orbital period
96.37 mins
BSTAR
0.00024543
Loading maneuver chart data...
Loading SW <> Apogee altitude chart data...
Loading historical data...
Loading historical data...
Loading historical data...
Loading historical data...
Loading historical data...
Loading historical data...
Loading historical data...

ELECTRON KICK STAGE R/B Visibility forecast

Observer location: undefined°, undefined°

Span
Click to sort rows by Start time (UTC) header in descending order
Start Az.
Max El. time (UTC)
Max El. Az.
Max El.
End time (UTC)
End Az.
7 mins2025-07-03 11:05:29.650Z162.792° S2025-07-03 11:08:29.650Z105.786° ESE44.646°2025-07-03 11:12:29.650Z349.281° N
6 mins2025-07-04 00:24:29.650Z350.588° N2025-07-04 00:26:29.650Z295.522° NW37.515°2025-07-04 00:30:29.650Z212.218° SW
|